Regional Weather Roundup
Issued by NWS Upton, NY

Current Version | Previous Version | Graphics & Text | Print | Product List | Glossary Off
Versions: 1 2 3 4 5 6 7 8 9 10 11 12 13 14 15 16 17 18 19 20 21 22 23 24 25 26 27 28 29 30 31 32 33 34 35 36 37 38 39 40 41 42 43 44 45 46 47 48 49 50

916
ASUS41 KOKX 160508
RWROKX

REGIONAL WEATHER ROUNDUP
NATIONAL WEATHER SERVICE NEW YORK NY
100 AM EDT WED AUG 16 2017

NOTE: "FAIR" INDICATES FEW OR NO CLOUDS BELOW 12,000 FEET WITH NO
SIGNIFICANT WEATHER AND/OR OBSTRUCTIONS TO VISIBILITY.

NYZ071-072-176-178-NJZ106-104-160600-
NEW YORK CITY METRO AREA

CITY           SKY/WX    TMP DP  RH WIND       PRES   REMARKS
Central Park   CLEAR     71  69  93 CALM      29.93S FOG
Bronx Bot Gard   N/A     70  68  94 E1        29.91F
LaGuardia APRT MOCLDY    72  71  97 CALM      29.90S
Kennedy INTL   PTCLDY    71  71 100 S3        29.92S
Breezy Point     N/A     72 N/A N/A S5          N/A
Newark/Liberty PTCLDY    71  70  96 SW3       29.91R FOG
Teterboro      CLEAR     70  69  97 CALM      29.89S
$$

NYZ177-179-078>081-160600-
LONG ISLAND NEW YORK

CITY           SKY/WX    TMP DP  RH WIND       PRES   REMARKS
Jones Beach      N/A     70 N/A N/A S2          N/A
Matinecock PT    N/A     70 N/A N/A S5          N/A
Farmingdale    CLEAR     70  68  93 CALM      29.91S
MacArthur/ISP  CLEAR     68  68 100 SW5       29.90S
Shirley        CLEAR     67  67 100 CALM      29.90F FOG
Mt Sinai Harb    N/A    N/A N/A N/A S1          N/A
Westhampton    FOG       65  63  93 CALM      29.91F VSB 3/4
East Hampton   FAIR      66  65  97 CALM      29.89F
Montauk          N/A     70  69  97 S3        29.91F
$$

NYZ052-065-067-160600-
HUDSON VALLEY

CITY           SKY/WX    TMP DP  RH WIND       PRES   REMARKS
White Plains   FOG       69  67  93 CALM      29.91S VSB 3/4
Larchmont Harb   N/A     72 N/A N/A SW7         N/A
Croton On Huds   N/A     72 N/A N/A SW1         N/A
Newburgh       MOCLDY    70  70 100 CALM      29.92F
Montgomery     MOCLDY    68  67  96 SW3       29.91S FOG
Poughkeepsie   CLEAR     66  65  96 CALM      29.89R FOG
Albany         CLEAR     65  62  90 CALM      29.91R
$$

NJZ001-105-106-008-010-013-015-019>022-104-160600-
NEW JERSEY

CITY           SKY/WX    TMP DP  RH WIND       PRES   REMARKS
Newark/Liberty PTCLDY    71  70  96 SW3       29.91R FOG
Teterboro      CLEAR     70  69  97 CALM      29.89S
Caldwell       FOG       69  69 100 CALM      29.92R VSB 3/4
Somerville     NOT AVBL
Linden         FAIR      71  69  94 CALM      29.91S FOG
Perth Amboy      N/A     72 N/A N/A W5          N/A
Sussex         CLOUDY    68  68 100 CALM      29.92S FOG
Andover          N/A     67  66  97 CALM      29.93S
Trenton        PTCLDY    70  70 100 CALM      29.92S FOG
Millville      FOG       75  75 100 N6        29.92R VSB 1
Atlantic City  FOG       72  72 100 N3        29.91S VSB 1/2
Wrightstown    CLOUDY    73  73  98 CALM      29.90S
Toms River     CLOUDY    73  72  96 CALM      29.93R
Belmar         CLOUDY    72  71  97 CALM      29.93S
$$

PAZ047>061-062-071-160600-
EASTERN PENNSYLVANIA

CITY           SKY/WX    TMP DP  RH WIND       PRES   REMARKS
Philadelphia   PTCLDY    73  71  93 NW3       29.93R
Allentown      FOG       66  64  93 SW3       29.93S VSB 1/4
Scranton       PTCLDY    66  64  93 E5        29.96S
$$

CTZ002-004>006-009-010-012-RIZ004-006-007-MAZ004-011-015-160600-
SOUTHERN NEW ENGLAND
 IN CT

CITY           SKY/WX    TMP DP  RH WIND       PRES   REMARKS
Bradley INTL   MOCLDY    69  67  93 S5        29.89R
Hartford       MOCLDY    71  68  90 S5        29.88F
Danbury        CLOUDY    70  69  97 W7        29.92R FOG
Wtrbury/Oxford CLOUDY    68  68 100 VRB5      29.93R FOG
Norwalk Harbor   N/A     70 N/A N/A S6          N/A
Bridgeport     CLOUDY    72  69  90 SW8       29.89S
Meriden        CLOUDY    69  68  96 CALM      29.90R
New Haven      CLOUDY    72  69  90 SW6       29.89F
Chester        NOT AVBL
Groton         CLEAR     67  66  97 CALM      29.89R
Wilimantic     CLOUDY    69  68  96 CALM      29.89S

 IN RI

CITY           SKY/WX    TMP DP  RH WIND       PRES   REMARKS
Providence     MOCLDY    66  66 100 CALM      29.90R
Block Island   CLOUDY    68  67  96 SW7       29.91S
Westerly       CLEAR     65  64  97 CALM      29.90S
 IN MA

CITY           SKY/WX    TMP DP  RH WIND       PRES   REMARKS
Boston         PTCLDY    69  65  86 SW7       29.87S
Worcester      CLOUDY    66  64  93 W12G20    29.90F
Westfield      FOG       66  66 100 CALM      29.88S VSB 1/2
Provincetown   CLEAR     67  65  93 SW8       29.89S
Nantucket      FOG       66  66 100 NW5       29.90R VSB 1/4
$$

ANZ330-335-338-340-345-350-353-355-160600-
COASTAL MARINE OBSERVATIONS


STATION/POSITION TIME  SKY/WX   TEMP    WIND        PRES    VSBY  WAVE
                                AIR SEA DIR/SP/G                  HT/PER
                 (UTC)          (F)     (DEG/KT/KT) (MB)    (MI)  (FT/S)
NY HARB ENTRANCE 0350            74 75   70/  2/  4 1012.4          4/11
GREAT SOUTH BAY  0430            73 77  180/  4/  6   N/A
23 SSW MONTAUK P 0350            70 70              1013.0          4/12
15 E BARNEGAT LI 0400               76                N/A           5/10
HUDSON CANYON    0350            72 74   50/  4/  6 1011.3          7/12
KINGS POINT      0430            71 74  180/  3/  5 1012.5
EXECUTION ROCKS  NOT AVBL
WESTERN LI SOUND NOT AVBL
CENTRAL LI SOUND NOT AVBL
EASTERN LI SOUND NOT AVBL
ROBBINS REEF     0424                   190/  6/  7 1013.2
$$


>>>>>>>>>>>>>>>>>>>>>>>>>>>> KEY <<<<<<<<<<<<<<<<<<<<<<<<<<<
>                                                          <
>     SKY/WX - Sky Condition/Present Weather               <
>     TMP    - Temperature in Fahrenheit                   <
>     DP     - Dew Point in Fahrenheit                     <
>     RH     - Relative Humidity in Percent                <
>     WIND   - Direction (from) and Speed in MPH           <
>     PRES   - Mean Sea Level Pressure (inches of Hg)      <
>     WCI    - Wind Chill Index                            <
>     VSB    - VISIBILITY IN MILES                         <
>     HX     - HEAT INDEX                                  <
>     TC     - TEMPERATURE IN CELSIUS                      <
>     VRB    - VARIABLE WIND DIRECTION                     <
>                                                          <
>>>>>>>>>>>>>>>>>>>>>>>>>>>> KEY <<<<<<<<<<<<<<<<<<<<<<<<<<<




USA.gov is the U.S. government's official web portal to all federal, state and local government web resources and services.